This is the latest recevied weather packets stored in our database for station/object IW1QNQ-13. If no packets are shown the sender has not sent any weather packets the latest 10 day(s).
| Time | Temp. | Humidity | Pressure | Rain* | Wind** | Luminosity | Snow |
|---|---|---|---|---|---|---|---|
| 1787894693 | 27.78° C | 77% | 1021.3 hPa | - | - | - | - |
| 1787893492 | 27.78° C | 79% | 1021.9 hPa | - | - | - | - |
| 1787892291 | 27.22° C | 80% | 1021.6 hPa | - | - | - | - |
| 1787891090 | 27.22° C | 80% | 1021.6 hPa | - | - | - | - |
| 1787889889 | 27.22° C | 80% | 1021.1 hPa | - | - | - | - |
| 1787888689 | 27.22° C | 79% | 1020.9 hPa | - | - | - | - |
| 1787887488 | 27.78° C | 78% | 1021.1 hPa | - | - | - | - |
| 1787886287 | 27.78° C | 79% | 1021.2 hPa | - | - | - | - |
| 1787885086 | 27.78° C | 79% | 1021.4 hPa | - | - | - | - |
| 1787882685 | 30° C | 77% | 1021.8 hPa | - | - | - | - |
| 1787881498 | 27.78° C | 72% | 1021.9 hPa | - | - | - | - |
| 1787880297 | 27.78° C | 72% | 1021.5 hPa | - | - | - | - |
| 1787879096 | 27.78° C | 72% | 1022.4 hPa | - | - | - | - |
| 1787877895 | 28.33° C | 70% | 1022.1 hPa | - | - | - | - |
| 1787876695 | 27.78° C | 71% | 1022.7 hPa | - | - | - | - |
| 1787875494 | 27.78° C | 71% | 1021.9 hPa | - | - | - | - |
| 1787874293 | 27.22° C | 73% | 1021.5 hPa | - | - | - | - |
| 1787873092 | 27.78° C | 71% | 1021.5 hPa | - | - | - | - |
| 1787871891 | 27.78° C | 71% | 1021.9 hPa | - | - | - | - |
| 1787870691 | 28.33° C | 71% | 1021.7 hPa | - | - | - | - |
| 1787869490 | 27.78° C | 73% | 1021.6 hPa | - | - | - | - |
| 1787868289 | 27.78° C | 73% | 1022.8 hPa | - | - | - | - |
| 1787867088 | 28.33° C | 72% | 1023.2 hPa | - | - | - | - |
| 1787865887 | 27.78° C | 69% | 1023 hPa | - | - | - | - |
| 1787864687 | 28.33° C | 67% | 1022.8 hPa | - | - | - | - |
* Rain since midnight (hover to see other rain measurements)
** Current wind speed in m/s (hover to see current wind gust speed)